Location: Bratislava
(48.1500°N, 17.1167°E)
Time: 22:21:53
(UTC+01:00)

ISS - Pass Details

Date: 20 January 2020
Orbit: 415 x 423 km, 51.6° (Epoch: 25 February)

Event Time Altitude Azimuth Distance (km) Brightness Sun altitude
Rises 18:16:42 0° 199° (SSW) 2,366 0.5 -17.2°
Reaches altitude 10° 18:19:21 10° 177° (S) 1,505 -0.9 -17.6°
Enters shadow 18:20:44 15° 154° (SSE) 1,235 -1.6 -17.8°
